Weather in Santa Maria

Portugal     36°58′22″N   25°09′56″W
temp.,
°C
wind,
m/s
gust,
m/s
humid.,
%
clouds,
%
prec.,
mm/h
press.,
hPa
HPBL,
m
31 july, sat
sat3100:00+22ne78796 0.0 1030686
03:00+21ne678066 0.0 1029743
06:00+22nne567995 0.0 1028752
09:00+22nne458180 0.1 1030526
12:00+22n338088 0.2 1030422
15:00+22nw337826 0.1 1030432
18:00+23n34785 0.1 1029524
21:00+23ne43821 0.0 1030435
1 august, sun
sun100:00+22n448396 0.1 1030521
03:00+22n338289 0.1 1029471
06:00+22nnw457819 0.1 1028502
09:00+22nnw458117 0.0 1029496
12:00+23nnw56812 0.0 1029515
15:00+23nnw67825 0.0 1028603
18:00+23nnw88865 0.0 1027482
21:00+23nnw77865 0.0 1027411
2 august, mon
mon200:00+23nnw68853 0.0 1028542
03:00+23nnw788874 0.0 1026492
06:00+23nnw799166 0.5 1025447
09:00+23n698930 0.4 1025556
12:00+23nne698855 0.8 1026559
15:00+23ne788710 0.0 1025558
18:00+23ne67848 0.0 1025553
21:00+23ne688453 0.0 1025628
3 august, tue
tue300:00+22ne77818 0.1 1026694
03:00+22ne66772 0.0 1026696
06:00+22ne77730 0.0 1026705
09:00+22ne67720 0.0 1026692
12:00+22ne56710 0.0 1027677
15:00+22ne56730 0.0 1027633
18:00+22ne34740 0.0 1027477
21:00+22ne46790 0.0 1028507
4 august, wed
wed400:00+23ne468414 0.0 1028503
03:00+22ne348734 0.0 1027407
06:00+23n348875 0.1 1027347
09:00+22nnw44870 0.1 1028323
12:00+23n22845 0.1 1028273
15:00+23wnw11804 0.0 1028300
18:00+24nw33745 0.0 1028405
21:00+24nw45815 0.0 1028357